This demonstration page uses our WeatherBlox Daily Observations layout. Learn more.

Left ArrowRight Arrow

Hourly Observations for April 30, 2018

Temp ( °F °C ) Dew Point ( °F °C ) Humidity (%) Winds ( mph kmh ) Pressure ( in mb ) Visibility ( mi km ) Precip ( " mm )
12:56 am 00:56 Clear 67 19.4 47 8.3 49 49 S 30 48 29.71 1006 10 16 0.00 0.00
1:56 am 01:56 Clear 66 18.9 48 8.9 52 52 S 29 46 29.70 1006 10 16 0.00 0.00
2:56 am 02:56 Clear 65 18.3 48 8.9 54 54 S 22 35 29.70 1006 10 16 0.00 0.00
3:56 am 03:56 Clear 65 18.3 48 8.9 54 54 S 24 39 29.67 1005 10 16 0.00 0.00
4:56 am 04:56 Clear 64 17.8 47 8.3 54 54 S 25 41 29.66 1004 10 16 0.00 0.00
5:56 am 05:56 Clear 62 16.7 47 8.3 58 58 S 18 30 29.67 1005 10 16 0.00 0.00
6:56 am 06:56 Sunny 62 16.7 47 8.3 58 58 S 23 37 29.67 1005 10 16 0.00 0.00
7:56 am 07:56 Sunny 62 16.7 48 8.9 60 60 S 21 33 29.68 1005 10 16 0.00 0.00
8:56 am 08:56 Sunny 65 18.3 48 8.9 54 54 S 26 43 29.68 1005 10 16 0.00 0.00
9:56 am 09:56 Sunny 67 19.4 49 9.4 53 53 S 31 50 29.67 1005 10 16 0.00 0.00
10:56 am 10:56 Sunny 73 22.8 50 10 44 44 S 31 50 29.66 1004 10 16 0.00 0.00
11:56 am 11:56 Sunny 76 24.4 51 10.6 42 42 S 35 56 29.64 1004 10 16 0.00 0.00
12:56 pm 12:56 Sunny 77 25 52 11.1 42 42 S 36 57 29.63 1003 10 16 0.00 0.00
1:56 pm 13:56 Sunny 79 26.1 53 11.7 41 41 S 29 46 29.61 1003 10 16 0.00 0.00
2:56 pm 14:56 Sunny 82 27.8 53 11.7 37 37 S 40 65 29.57 1002 10 16 0.00 0.00
3:56 pm 15:56 Mostly Sunny 82 27.8 54 12.2 38 38 S 32 52 29.56 1001 10 16 0.00 0.00
4:56 pm 16:56 Partly Cloudy 82 27.8 55 12.8 40 40 SSW 30 48 29.55 1001 10 16 0.00 0.00
5:56 pm 17:56 Mostly Sunny 82 27.8 55 12.8 40 40 S 26 43 29.54 1001 10 16 0.00 0.00
6:56 pm 18:56 Sunny 79 26.1 55 12.8 44 44 S 33 54 29.53 1000 10 16 0.00 0.00
7:56 pm 19:56 Sunny 76 24.4 55 12.8 48 48 S 30 48 29.53 1000 10 16 0.00 0.00
8:56 pm 20:56 Clear 74 23.3 56 13.3 54 54 S 32 52 29.53 1000 10 16 0.00 0.00
9:56 pm 21:56 Clear 72 22.2 56 13.3 57 57 S 26 43 29.55 1001 10 16 0.00 0.00
10:56 pm 22:56 Clear 69 20.6 57 13.9 66 66 S 25 41 29.57 1001 10 16 0.00 0.00
11:56 pm 23:56 Clear 68 20 57 13.9 68 68 S 26 43 29.57 1001 10 16 0.00 0.00

Powered by AerisWeather